PAL240 RPMZ-RPLL

Flight info

Callsign PAL240
Flight time 1h 24m
Altitude 31000
Route BURCO1W BURCO W3 IOO B472 IBAGO IBAGO7P
Aircraft A321/M-SDE3FGHIRWY/LB1

Departure

Time 2026-04-16 11:14
Airport Zamboanga International Airport (RPMZ)

Arrival

Time 2026-04-16 12:39
Airport Ninoy Aquino International Airport (RPLL)
Time Latitude Longitude Altitude Speed Heading
2026-04-16 11:09 6.92126 122.06214 33 ft 4 kts 153°
2026-04-16 11:09 6.92137 122.06202 33 ft 4 kts 94°
2026-04-16 11:09 6.92138 122.06181 33 ft 0 kts 94°
2026-04-16 11:11 6.92136 122.06219 34 ft 12 kts 92°
2026-04-16 11:11 6.92211 122.06263 37 ft 8 kts 43°
2026-04-16 11:11 6.92215 122.06363 36 ft 21 kts 93°
2026-04-16 11:12 6.92203 122.06549 36 ft 32 kts 94°
2026-04-16 11:12 6.92185 122.06808 36 ft 40 kts 92°
2026-04-16 11:12 6.92171 122.07036 36 ft 19 kts 94°
2026-04-16 11:12 6.92165 122.07125 37 ft 6 kts 168°
2026-04-16 11:13 6.92162 122.07097 34 ft 6 kts 291°
2026-04-16 11:13 6.92170 122.07059 36 ft 0 kts 273°
2026-04-16 11:13 6.92170 122.07058 36 ft 0 kts 273°
2026-04-16 11:14 6.92170 122.07048 36 ft 7 kts 274°
2026-04-16 11:14 6.92195 122.06649 37 ft 111 kts 274°
2026-04-16 11:14 6.92260 122.05655 332 ft 157 kts 273°
2026-04-16 11:14 6.92342 122.04528 1058 ft 168 kts 274°
2026-04-16 11:15 6.92424 122.03362 1986 ft 169 kts 274°
2026-04-16 11:15 6.92478 122.02550 2352 ft 178 kts 274°
2026-04-16 11:15 6.92595 122.00772 2822 ft 207 kts 274°
2026-04-16 11:15 6.92696 121.99239 3119 ft 233 kts 274°
2026-04-16 11:16 6.92813 121.97484 3649 ft 260 kts 274°
2026-04-16 11:16 6.92937 121.95651 4510 ft 271 kts 274°
2026-04-16 11:16 6.93146 121.93744 5479 ft 277 kts 285°
2026-04-16 11:16 6.94041 121.92025 6450 ft 282 kts 312°
2026-04-16 11:17 6.95050 121.91150 7084 ft 285 kts 329°
2026-04-16 11:17 6.97512 121.90199 8385 ft 289 kts 343°
2026-04-16 11:17 6.98776 121.89795 9027 ft 292 kts 343°
2026-04-16 11:17 7.01410 121.88949 10279 ft 298 kts 343°
2026-04-16 11:18 7.03399 121.88303 11158 ft 302 kts 343°
2026-04-16 11:18 7.04731 121.87867 11739 ft 305 kts 343°
2026-04-16 11:18 7.07528 121.87319 12870 ft 310 kts
2026-04-16 11:18 7.09659 121.87671 13675 ft 315 kts 19°
2026-04-16 11:19 7.11012 121.88274 13864 ft 329 kts 32°
2026-04-16 11:19 7.12830 121.89781 14067 ft 351 kts 45°
2026-04-16 11:19 7.14615 121.91531 14511 ft 363 kts 45°
2026-04-16 11:19 7.17045 121.93895 15374 ft 370 kts 44°
2026-04-16 11:20 7.18304 121.95111 15840 ft 373 kts 44°
2026-04-16 11:20 7.20823 121.97525 16763 ft 380 kts 44°
2026-04-16 11:20 7.22108 121.98750 17221 ft 383 kts 43°
2026-04-16 11:20 7.24070 122.00613 17923 ft 387 kts 43°
2026-04-16 11:21 7.26045 122.02485 18547 ft 392 kts 43°
2026-04-16 11:21 7.28046 122.04382 19123 ft 397 kts 43°
2026-04-16 11:21 7.30070 122.06306 19724 ft 402 kts 43°
2026-04-16 11:21 7.32209 122.08133 20300 ft 406 kts 34°
2026-04-16 11:22 7.34681 122.09543 20885 ft 410 kts 22°
2026-04-16 11:22 7.37364 122.10431 21482 ft 413 kts 11°
2026-04-16 11:22 7.40218 122.10831 22084 ft 416 kts
2026-04-16 11:22 7.43112 122.11139 22671 ft 420 kts
2026-04-16 11:23 7.46029 122.11454 23241 ft 424 kts
2026-04-16 11:23 7.48973 122.11776 23739 ft 427 kts
2026-04-16 11:23 7.51948 122.12107 24197 ft 431 kts
2026-04-16 11:23 7.54941 122.12443 24660 ft 434 kts
2026-04-16 11:24 7.57961 122.12783 25120 ft 437 kts
2026-04-16 11:24 7.60994 122.13126 25570 ft 440 kts
2026-04-16 11:24 7.64054 122.13469 26029 ft 444 kts
2026-04-16 11:24 7.67132 122.13813 26473 ft 447 kts
2026-04-16 11:25 7.70230 122.14157 26912 ft 450 kts
2026-04-16 11:25 7.73354 122.14505 27352 ft 453 kts
2026-04-16 11:25 7.76494 122.14851 27791 ft 456 kts
2026-04-16 11:25 7.79662 122.15199 28226 ft 459 kts
2026-04-16 11:26 7.82850 122.15551 28661 ft 463 kts
2026-04-16 11:26 7.86063 122.15909 29079 ft 466 kts
2026-04-16 11:26 7.89295 122.16270 29484 ft 469 kts
2026-04-16 11:26 7.92504 122.16626 29889 ft 472 kts
2026-04-16 11:27 7.95782 122.16990 30246 ft 475 kts
2026-04-16 11:27 7.99073 122.17354 30645 ft 477 kts
2026-04-16 11:27 8.02368 122.17720 30854 ft 476 kts
2026-04-16 11:27 8.05627 122.18085 30904 ft 464 kts
2026-04-16 11:28 8.08805 122.18444 30909 ft 456 kts
2026-04-16 11:28 8.15082 122.19150 30907 ft 453 kts
2026-04-16 11:29 8.21345 122.19837 30910 ft 452 kts
2026-04-16 11:29 8.27599 122.20530 30907 ft 452 kts
2026-04-16 11:30 8.33848 122.21234 30908 ft 452 kts
2026-04-16 11:30 8.40097 122.21928 30910 ft 452 kts
2026-04-16 11:31 8.46343 122.22624 30908 ft 451 kts
2026-04-16 11:31 8.52586 122.23323 30904 ft 451 kts
2026-04-16 11:32 8.58837 122.24014 30904 ft 452 kts
2026-04-16 11:32 8.65081 122.24713 30910 ft 452 kts
2026-04-16 11:33 8.71336 122.25422 30915 ft 452 kts
2026-04-16 11:33 8.77582 122.26114 30917 ft 451 kts
2026-04-16 11:34 8.83787 122.26803 30912 ft 451 kts
2026-04-16 11:34 8.90024 122.27504 30910 ft 451 kts
2026-04-16 11:35 8.96268 122.28208 30913 ft 451 kts
2026-04-16 11:35 9.02511 122.28901 30915 ft 451 kts
2026-04-16 11:36 9.08748 122.29596 30915 ft 451 kts
2026-04-16 11:36 9.14982 122.30295 30915 ft 450 kts
2026-04-16 11:37 9.21217 122.30990 30913 ft 450 kts
2026-04-16 11:37 9.27451 122.31684 30913 ft 450 kts
2026-04-16 11:38 9.33685 122.32382 30910 ft 451 kts
2026-04-16 11:38 9.39917 122.33080 30920 ft 451 kts
2026-04-16 11:39 9.46153 122.33781 30922 ft 451 kts
2026-04-16 11:39 9.52347 122.34484 30925 ft 451 kts
2026-04-16 11:40 9.58579 122.35185 30924 ft 450 kts
2026-04-16 11:40 9.64810 122.35880 30925 ft 451 kts
2026-04-16 11:41 9.71020 122.36571 30927 ft 451 kts
2026-04-16 11:41 9.77283 122.37272 30931 ft 451 kts
2026-04-16 11:42 9.83511 122.37966 30927 ft 450 kts
2026-04-16 11:42 9.89736 122.38669 30927 ft 450 kts
2026-04-16 11:43 9.95957 122.39362 30925 ft 449 kts
2026-04-16 11:43 10.02171 122.40053 30925 ft 449 kts
2026-04-16 11:44 10.08387 122.40752 30922 ft 449 kts
2026-04-16 11:44 10.14609 122.41452 30921 ft 450 kts
2026-04-16 11:45 10.20827 122.42156 30922 ft 450 kts
2026-04-16 11:45 10.26997 122.42855 30919 ft 449 kts
2026-04-16 11:46 10.33217 122.43553 30914 ft 449 kts
2026-04-16 11:46 10.39425 122.44246 30911 ft 449 kts
2026-04-16 11:47 10.45637 122.44942 30912 ft 449 kts
2026-04-16 11:47 10.51855 122.45640 30915 ft 449 kts
2026-04-16 11:48 10.58071 122.46344 30916 ft 449 kts
2026-04-16 11:48 10.62190 122.46809 30920 ft 449 kts
2026-04-16 11:49 10.70429 122.47732 30926 ft 449 kts
2026-04-16 11:49 10.76647 122.48430 30929 ft 449 kts
2026-04-16 11:50 10.82875 122.48664 30930 ft 448 kts 352°
2026-04-16 11:50 10.88802 122.46946 30933 ft 447 kts 336°
2026-04-16 11:51 10.94519 122.44459 30938 ft 447 kts 336°
2026-04-16 11:51 11.00252 122.41985 30940 ft 447 kts 336°
2026-04-16 11:52 11.05976 122.39513 30946 ft 447 kts 336°
2026-04-16 11:52 11.11707 122.37038 30948 ft 447 kts 336°
2026-04-16 11:53 11.17436 122.34560 30955 ft 447 kts 336°
2026-04-16 11:53 11.23173 122.32079 30956 ft 447 kts 336°
2026-04-16 11:54 11.28899 122.29601 30952 ft 447 kts 336°
2026-04-16 11:54 11.34627 122.27117 30948 ft 447 kts 336°
2026-04-16 11:55 11.40358 122.24631 30949 ft 447 kts 336°
2026-04-16 11:55 11.46081 122.22148 30945 ft 447 kts 336°
2026-04-16 11:56 11.51809 122.19660 30940 ft 447 kts 336°
2026-04-16 11:56 11.57499 122.17191 30939 ft 447 kts 336°
2026-04-16 11:57 11.63227 122.14709 30938 ft 447 kts 336°
2026-04-16 11:57 11.68955 122.12216 30936 ft 447 kts 336°
2026-04-16 11:58 11.74685 122.09732 30929 ft 447 kts 336°
2026-04-16 11:58 11.80416 122.07238 30930 ft 447 kts 336°
2026-04-16 11:59 11.86141 122.04745 30931 ft 448 kts 336°
2026-04-16 11:59 11.91869 122.02251 30932 ft 448 kts 336°
2026-04-16 12:00 11.97602 121.99761 30929 ft 448 kts 336°
2026-04-16 12:00 12.03332 121.97263 30931 ft 448 kts 336°
2026-04-16 12:01 12.09058 121.94766 30929 ft 448 kts 336°
2026-04-16 12:01 12.14792 121.92271 30931 ft 448 kts 336°
2026-04-16 12:02 12.23352 121.88528 30934 ft 448 kts 336°
2026-04-16 12:02 12.29075 121.86025 30933 ft 448 kts 336°
2026-04-16 12:03 12.34804 121.83523 30931 ft 448 kts 336°
2026-04-16 12:03 12.40536 121.81021 30932 ft 448 kts 336°
2026-04-16 12:04 12.46270 121.78521 30932 ft 448 kts 336°
2026-04-16 12:04 12.52003 121.76015 30933 ft 448 kts 336°
2026-04-16 12:05 12.57731 121.73496 30937 ft 448 kts 336°
2026-04-16 12:05 12.63466 121.70980 30938 ft 448 kts 336°
2026-04-16 12:06 12.69198 121.68469 30938 ft 448 kts 336°
2026-04-16 12:06 12.74928 121.65951 30941 ft 448 kts 336°
2026-04-16 12:07 12.80651 121.63438 30940 ft 448 kts 336°
2026-04-16 12:07 12.86386 121.60919 30944 ft 448 kts 336°
2026-04-16 12:08 12.92069 121.58419 30946 ft 448 kts 336°
2026-04-16 12:08 12.97798 121.55897 30950 ft 448 kts 336°
2026-04-16 12:09 13.03531 121.53371 30947 ft 448 kts 336°
2026-04-16 12:09 13.09257 121.50849 30948 ft 448 kts 336°
2026-04-16 12:10 13.14059 121.48736 30949 ft 448 kts 336°
2026-04-16 12:10 13.19747 121.46235 30950 ft 448 kts 336°
2026-04-16 12:11 13.25477 121.43712 30950 ft 448 kts 336°
2026-04-16 12:11 13.31210 121.41178 30950 ft 448 kts 336°
2026-04-16 12:12 13.36935 121.38653 30949 ft 448 kts 336°
2026-04-16 12:12 13.42666 121.36127 30951 ft 448 kts 336°
2026-04-16 12:13 13.48392 121.33600 30952 ft 448 kts 336°
2026-04-16 12:13 13.54166 121.31310 30947 ft 448 kts 346°
2026-04-16 12:14 13.60340 121.30613 30947 ft 448 kts 357°
2026-04-16 12:14 13.66574 121.30295 30949 ft 448 kts 357°
2026-04-16 12:15 13.72803 121.29956 30949 ft 448 kts 356°
2026-04-16 12:15 13.79033 121.29610 30948 ft 448 kts 356°
2026-04-16 12:16 13.85258 121.29274 30950 ft 448 kts 356°
2026-04-16 12:16 13.91486 121.28937 30952 ft 448 kts 356°
2026-04-16 12:17 13.97717 121.28600 30952 ft 448 kts 356°
2026-04-16 12:17 14.03945 121.28290 30952 ft 448 kts
2026-04-16 12:18 14.09997 121.29100 30841 ft 428 kts
2026-04-16 12:18 14.12907 121.29599 30508 ft 421 kts
2026-04-16 12:18 14.15785 121.30091 30081 ft 417 kts
2026-04-16 12:19 14.18606 121.30570 29173 ft 407 kts
2026-04-16 12:19 14.21386 121.31039 28101 ft 402 kts
2026-04-16 12:19 14.24115 121.31499 27111 ft 395 kts
2026-04-16 12:19 14.26805 121.31954 26152 ft 388 kts
2026-04-16 12:20 14.29444 121.32400 25222 ft 381 kts
2026-04-16 12:20 14.32008 121.32832 24621 ft 365 kts
2026-04-16 12:20 14.34501 121.33253 24102 ft 363 kts
2026-04-16 12:20 14.36975 121.33608 23932 ft 353 kts
2026-04-16 12:21 14.39392 121.33450 23707 ft 346 kts 349°
2026-04-16 12:21 14.41695 121.32707 23145 ft 350 kts 335°
2026-04-16 12:21 14.43794 121.31489 22827 ft 344 kts 330°
2026-04-16 12:21 14.45865 121.30283 22418 ft 339 kts 335°
2026-04-16 12:22 14.48100 121.29722 21601 ft 328 kts
2026-04-16 12:22 14.50189 121.30355 21188 ft 307 kts 33°
2026-04-16 12:22 14.51661 121.31854 20689 ft 294 kts 59°
2026-04-16 12:22 14.52649 121.33660 20223 ft 285 kts 60°
2026-04-16 12:23 14.53622 121.35433 19776 ft 283 kts 60°
2026-04-16 12:23 14.54602 121.37192 19341 ft 281 kts 59°
2026-04-16 12:23 14.55578 121.38931 18923 ft 279 kts 59°
2026-04-16 12:23 14.56544 121.40655 18468 ft 279 kts 59°
2026-04-16 12:24 14.57529 121.42414 17981 ft 285 kts 59°
2026-04-16 12:24 14.58518 121.44179 17519 ft 289 kts 59°
2026-04-16 12:24 14.59530 121.45985 17062 ft 292 kts 59°
2026-04-16 12:24 14.60548 121.47810 16601 ft 295 kts 59°
2026-04-16 12:25 14.61572 121.49653 16145 ft 297 kts 59°
2026-04-16 12:25 14.62601 121.51505 15746 ft 293 kts 59°
2026-04-16 12:25 14.63605 121.53313 15242 ft 287 kts 59°
2026-04-16 12:25 14.64594 121.55088 14780 ft 281 kts 59°
2026-04-16 12:26 14.65597 121.56804 14335 ft 275 kts 53°
2026-04-16 12:26 14.67060 121.57974 13923 ft 271 kts 22°
2026-04-16 12:26 14.68936 121.58136 13447 ft 272 kts 350°
2026-04-16 12:26 14.70638 121.57355 12985 ft 271 kts 333°
2026-04-16 12:27 14.72262 121.56411 12536 ft 265 kts 332°
2026-04-16 12:27 14.73855 121.55468 12099 ft 261 kts 332°
2026-04-16 12:27 14.75416 121.54543 11673 ft 257 kts 332°
2026-04-16 12:27 14.76900 121.53534 11240 ft 255 kts 317°
2026-04-16 12:28 14.77757 121.51961 10844 ft 254 kts 283°
2026-04-16 12:28 14.77651 121.50166 10479 ft 252 kts 250°
2026-04-16 12:28 14.76738 121.48638 10100 ft 250 kts 234°
2026-04-16 12:28 14.75803 121.47126 9704 ft 249 kts 239°
2026-04-16 12:29 14.74954 121.45580 9287 ft 247 kts 241°
2026-04-16 12:29 14.74128 121.44029 8901 ft 244 kts 241°
2026-04-16 12:29 14.73311 121.42502 8520 ft 242 kts 241°
2026-04-16 12:29 14.72495 121.40997 8144 ft 239 kts 240°
2026-04-16 12:30 14.71681 121.39515 7778 ft 236 kts 240°
2026-04-16 12:30 14.70869 121.38052 7405 ft 233 kts 240°
2026-04-16 12:30 14.70065 121.36605 7052 ft 231 kts 240°
2026-04-16 12:30 14.69278 121.35181 6711 ft 227 kts 240°
2026-04-16 12:31 14.68509 121.33786 6375 ft 224 kts 240°
2026-04-16 12:31 14.67741 121.32395 6018 ft 221 kts 240°
2026-04-16 12:31 14.66995 121.31052 5853 ft 209 kts 240°
2026-04-16 12:31 14.66288 121.29779 5651 ft 200 kts 240°
2026-04-16 12:32 14.65604 121.28544 5416 ft 196 kts 240°
2026-04-16 12:32 14.64933 121.27333 5166 ft 192 kts 240°
2026-04-16 12:32 14.64274 121.26142 4921 ft 189 kts 240°
2026-04-16 12:32 14.63630 121.24978 4682 ft 186 kts 240°
2026-04-16 12:33 14.62990 121.23822 4437 ft 185 kts 240°
2026-04-16 12:33 14.62352 121.22672 4198 ft 184 kts 240°
2026-04-16 12:33 14.61717 121.21524 3959 ft 184 kts 240°
2026-04-16 12:33 14.61081 121.20377 3729 ft 184 kts 239°
2026-04-16 12:34 14.60449 121.19237 3490 ft 183 kts 239°
2026-04-16 12:34 14.59830 121.18119 3280 ft 174 kts 239°
2026-04-16 12:34 14.59240 121.17054 3048 ft 166 kts 239°
2026-04-16 12:34 14.58682 121.16047 2834 ft 158 kts 239°
2026-04-16 12:35 14.58148 121.15083 2636 ft 151 kts 239°
2026-04-16 12:35 14.57635 121.14160 2438 ft 145 kts 239°
2026-04-16 12:35 14.57141 121.13268 2261 ft 141 kts 238°
2026-04-16 12:35 14.56662 121.12405 2082 ft 140 kts 239°
2026-04-16 12:36 14.56176 121.11528 1906 ft 137 kts 238°
2026-04-16 12:36 14.55712 121.10691 1755 ft 131 kts 237°
2026-04-16 12:36 14.55269 121.09894 1583 ft 128 kts 238°
2026-04-16 12:36 14.54829 121.09100 1405 ft 126 kts 238°
2026-04-16 12:37 14.54389 121.08307 1247 ft 127 kts 238°
2026-04-16 12:37 14.53950 121.07517 1080 ft 127 kts 238°
2026-04-16 12:37 14.53514 121.06732 931 ft 126 kts 238°
2026-04-16 12:37 14.53079 121.05948 780 ft 126 kts 238°
2026-04-16 12:38 14.52647 121.05170 628 ft 124 kts 240°
2026-04-16 12:38 14.52218 121.04398 449 ft 123 kts 241°
2026-04-16 12:38 14.51783 121.03638 311 ft 123 kts 239°
2026-04-16 12:38 14.51371 121.02874 118 ft 121 kts 241°
2026-04-16 12:39 14.50984 121.02150 67 ft 101 kts 239°
2026-04-16 12:39 14.50775 121.01790 62 ft 27 kts 240°
2026-04-16 12:39 14.50668 121.01596 64 ft 36 kts 240°
2026-04-16 12:39 14.50549 121.01361 68 ft 29 kts 257°
2026-04-16 12:40 14.50530 121.01182 70 ft 17 kts 294°
2026-04-16 12:40 14.50613 121.01128 62 ft 11 kts 354°
2026-04-16 12:40 14.50678 121.01187 64 ft 15 kts 59°
2026-04-16 12:40 14.50736 121.01292 59 ft 19 kts 60°
2026-04-16 12:41 14.50774 121.01358 64 ft 10 kts 60°
2026-04-16 12:41 14.50837 121.01352 66 ft 10 kts 329°
2026-04-16 12:42 14.50859 121.01339 65 ft 0 kts 329°